Regional Weather Roundup
Issued by NWS

Home | Current Version | Previous Version | Graphics & Text | Print | Product List | Glossary On
Versions: 1 2 3 4 5 6 7 8 9 10 11 12 13 14 15 16 17 18 19 20 21 22 23 24 25 26 27 28 29 30 31 32 33 34 35 36 37 38 39 40 41 42 43 44 45 46 47 48 49 50
000
ASUS43 KIND 242309
RWRIN

WEATHER ROUNDUP FOR INDIANA
NATIONAL WEATHER SERVICE INDIANAPOLIS IN
700 PM EDT SUN SEP 24 2017

NOTE: "FAIR" INDICATES FEW OR NO CLOUDS BELOW 12,000 FEET WITH NO
SIGNIFICANT WEATHER AND/OR OBSTRUCTIONS TO VISIBILITY.

* - STATION DOES NOT REPORT WEATHER SUCH AS PRECIPITATION OR FOG.

+ - STATION NOT QUALITY CONTROLLED BY THE NATIONAL WEATHER SERVICE.
    USE DATA WITH CAUTION...ESPECIALLY DEWPOINT AND RELATIVE
    HUMIDITY OBSERVATIONS.

INZ001>003-010>013-019-020-250000-
NORTHWEST INDIANA

CITY           SKY/WX    TMP DP  RH WIND       PRES   REMARKS
GARY /AIRPORT/ PTCLDY    81  63  54 E6        30.02S
KNOX *+        CLEAR     86  54  32 SE3       30.03R
LA PORTE +     CLEAR     86  57  37 SE5       30.04S
MICHIGAN CITY+ CLEAR     82  57  42 CALM      30.03S
MONTICELLO +   CLEAR     87  53  31 CALM      30.02R
RENSSELAER +   CLEAR     86  41  20 SE5       30.02S
VALPARAISO     CLEAR     88  56  33 SE7       30.03S

$$

LMZ046-743>745-250000-
SOUTHERN LAKE MICHIGAN

STATION/POSITION TIME  TEMP    WIND        PRES    WAVE
                       AIR SEA DIR/SP/G            HT
                 (UTC) (F)     (DEG/KT/KT) (MB)    (FT)
BURNS HARBOR     2240   77     320/  3/  7 1016.9R
MICHIGAN CITY    2240   76      40/  9/ 10   N/A
5NW MICH CITY    2300   77 73   70/  6/ 10   N/A     1

$$

INZ004-005-014>016-021>024-250000-
NORTH CENTRAL INDIANA

CITY           SKY/WX    TMP DP  RH WIND       PRES   REMARKS
GOSHEN         CLEAR     84  59  42 E3        30.05S
LOGANSPORT +   CLEAR     84  52  32 CALM      30.04S
PERU/GRISSOM   CLEAR     86  55  34 S3        30.03S
SOUTH BEND     CLEAR     86  56  35 SE9       30.05R
WARSAW +       CLEAR     82  59  44 E6        30.05S

$$

INZ006>009-017-018-025>027-250000-
NORTHEAST INDIANA

CITY           SKY/WX    TMP DP  RH WIND       PRES   REMARKS
AUBURN +       CLEAR     82  61  47 CALM      30.07S HAZE
FORT WAYNE     PTCLDY    84  59  42 E5        30.06R
HUNTINGTON +   CLEAR     85  52  31 SE3       30.04S
KENDALLVILLE + CLEAR     84  62  47 SE3       30.08R

$$

INZ028-029-035-036-043>045-051>053-250000-
WEST CENTRAL INDIANA

CITY           SKY/WX    TMP DP  RH WIND       PRES   REMARKS
GREENCASTLE +  CLEAR     84  52  32 SE5       30.03S
LAFAYETTE      CLEAR     85  55  35 SE5       30.01R
TERRE HAUTE    CLEAR     87  57  35 E8        30.00S

$$

INZ030>032-037>040-046>048-054>057-064-065-250000-
CENTRAL INDIANA

CITY           SKY/WX    TMP DP  RH WIND       PRES   REMARKS
CP ATTERBURY + CLEAR     82  59  44 CALM      30.03S
COLUMBUS       CLEAR     86  46  25 SE9       30.03R
FISHERS *+     CLEAR     82  61  47 SE6       30.04R
FRANKFORT +    CLOUDY    88  56  34 SE3       30.05S
GREENWOOD *+   CLEAR     90  57  33 SE5       30.04R
INDIANAPOLIS   PTCLDY    86  56  35 SE8       30.03R
-EAGLE CREEK   CLEAR     88  53  30 SE8       30.02S
KOKOMO +       CLEAR     82  60  47 S5        30.05S
MT COMFORT *+  CLEAR     86  54  32 S6        30.04S
SHELBYVILLE    CLEAR     87  54  32 SE6       30.03S
ZIONSVILLE +   CLEAR     84  55  37 SE3       30.05R

$$

INZ033-034-041-042-049-050-058-059-250000-
EAST CENTRAL INDIANA

CITY           SKY/WX    TMP DP  RH WIND       PRES   REMARKS
MUNCIE         CLEAR     87  51  28 S5        30.06R
RICHMOND +     CLEAR     81  52  36 SE3       30.08S

$$

INZ060-061-067>069-081>083-085>088-250000-
SOUTHWEST INDIANA

CITY           SKY/WX    TMP DP  RH WIND       PRES   REMARKS
EVANSVILLE     CLEAR     87  62  43 E5        29.98S
HUNTINGBURG +  CLEAR     84  68  58 MISG      30.00R
WASHINGTON +   CLEAR     87  55  33 SE7       29.99R

$$

INZ062-063-066-070>080-084-089>092-250000-
SOUTH CENTRAL AND SOUTHEAST INDIANA

CITY           SKY/WX    TMP DP  RH WIND       PRES   REMARKS
BEDFORD +      CLEAR     84  52  32 E5        30.01S
BLOOMINGTON    CLEAR     86  53  32 SE7       30.02S
MADISON *+     PTCLDY    82  54  36 E3        30.06R
NORTH VERNON + CLEAR     81  61  50 E3        30.05S
SEYMOUR +      CLEAR     86  57  37 E5        30.02S

$$





USA.gov is the U.S. government's official web portal to all federal, state and local government web resources and services.